Vorticity
10 10 10 9 8 7 7 7 7 8 10 12 14 16 18 19 16 12 9 9 10 9 8 12 11 9 13 14 12 10 12 15 14 12 10 9 8 9 9 10 11 12 12 12 12 13 12 12 12 8 6 6 13 16 4 1 7 6 2 4 6 -3 -5 1 2 2 -1 -1 0 0 -1 -3 -3 4 16 16 13 11 10 16 11 9 10 10 9 7 7 4
10 10 9 8 8 7 7 7 7 8 10 12 14 18 19 18 17 13 12 10 10 11 8 11 12 9 11 14 11 10 14 16 14 12 10 9 9 9 8 8 10 11 11 11 11 11 10 10 9 11 10 6 13 13 3 2 -2 -4 2 9 2 -8 -2 0 4 8 1 2 2 1 0 -3 -5 -7 0 7 15 16 10 19 17 12 11 7 7 9 10 8
10 9 9 8 8 7 7 7 8 9 11 14 17 21 21 18 16 15 13 11 10 11 10 11 12 9 10 13 12 10 15 15 12 12 10 8 10 10 7 7 8 7 8 6 7 9 8 7 8 10 8 7 10 6 1 1 -1 -5 -8 3 2 -7 5 3 3 9 3 6 5 5 7 3 -4 -15 -11 1 14 20 12 10 10 11 11 5 4 6 6 3
9 8 8 8 8 7 8 7 8 10 12 18 23 23 20 17 16 16 15 13 10 10 11 10 12 11 10 13 13 11 15 13 11 12 9 8 12 10 7 7 6 5 5 3 6 8 7 6 8 8 6 9 7 -0 1 1 -0 -1 -9 -1 5 -2 2 2 2 6 4 6 2 2 2 1 3 -2 1 7 13 18 8 -2 1 7 7 3 1 -1 0 -1
8 8 9 8 8 8 8 8 9 11 17 22 22 19 18 17 15 17 17 14 11 10 11 11 12 11 11 14 14 12 13 13 11 11 9 10 13 10 7 8 6 6 4 4 7 5 6 8 8 8 7 12 9 -1 1 -0 -7 -4 -4 -4 5 5 -1 -1 1 1 2 3 3 4 1 3 6 4 9 14 16 17 10 5 5 7 6 4 3 2 3 2
8 8 9 8 8 8 8 9 10 13 19 19 16 16 18 18 16 20 22 17 13 11 12 12 12 12 12 13 15 13 12 12 10 9 10 10 12 9 7 9 7 8 4 2 3 -1 4 8 5 5 7 11 8 -3 -7 -5 -4 0 3 -4 2 9 1 1 5 3 4 2 1 2 1 2 2 1 6 12 11 7 8 10 8 7 7 5 5 7 4 2
8 8 9 9 8 9 9 9 11 16 18 15 14 16 19 21 20 24 25 18 13 11 11 12 11 12 11 11 15 14 10 13 10 6 9 10 10 10 8 9 8 7 4 1 2 -2 4 9 4 2 7 7 0 -3 -8 -9 -2 3 5 -0 -1 2 -3 -1 4 4 8 9 5 1 -1 1 2 1 1 6 7 3 6 6 4 5 4 6 8 8 7 6
7 9 9 9 9 9 9 10 13 16 15 13 15 17 18 21 21 21 20 15 13 11 11 11 11 11 10 10 14 13 10 15 12 4 5 8 9 9 6 7 8 7 3 2 5 2 4 10 4 -0 5 3 -3 3 3 -7 -6 -2 2 6 4 2 1 0 -0 1 6 13 14 9 7 4 3 3 4 11 10 6 8 3 3 7 8 12 10 8 9 7
7 9 10 9 9 9 10 11 14 15 13 13 17 17 14 16 17 17 16 12 13 11 10 10 11 12 11 9 10 12 13 15 14 7 5 6 7 7 4 4 5 5 4 4 5 1 3 11 7 2 3 2 2 5 4 -3 -4 -3 -2 4 5 4 9 7 5 11 8 2 5 9 12 11 7 8 10 11 10 6 6 7 10 11 10 11 7 5 7 6
7 8 10 10 10 10 10 12 15 14 12 15 20 17 11 12 14 14 13 11 12 10 8 10 10 11 11 9 7 9 11 13 14 11 9 6 6 9 6 5 5 5 8 7 8 7 9 13 9 5 4 6 10 5 0 -0 -2 -1 -4 -1 6 4 6 6 7 20 18 0 -1 5 7 10 10 11 10 7 7 6 6 11 10 6 4 8 12 8 7 9
7 8 9 10 10 10 11 13 14 12 11 16 21 18 11 11 13 13 12 11 11 9 7 9 10 12 14 11 7 8 10 13 14 11 11 8 6 9 7 6 6 5 5 3 10 15 11 9 8 9 6 10 19 8 -0 1 -3 1 -2 -5 4 2 3 12 15 20 23 11 7 8 6 10 11 11 10 6 7 5 6 6 1 5 5 3 9 7 6 8
7 7 9 10 10 10 11 13 14 11 10 16 20 18 12 12 14 13 13 11 9 8 8 8 9 10 14 14 9 8 8 10 13 13 14 12 7 8 7 6 5 5 4 2 8 9 5 7 11 12 3 10 25 9 0 5 -2 0 -0 -10 -4 4 8 16 15 12 16 14 9 8 9 13 12 12 13 9 9 5 3 3 -0 5 1 -2 6 7 9 9
7 7 9 10 10 10 11 13 14 11 9 14 20 19 13 12 15 14 13 12 9 9 6 8 10 7 10 14 11 10 9 8 9 10 13 14 12 11 10 9 7 6 6 7 11 8 7 12 13 9 2 10 26 13 6 12 3 2 3 -6 -1 13 17 15 12 13 18 16 12 13 12 10 7 10 12 7 10 8 4 5 4 0 -3 2 8 7 8 9
6 6 8 10 10 10 11 12 13 11 9 11 17 20 15 11 13 15 15 12 11 11 7 8 10 7 10 14 10 11 11 8 8 9 10 10 11 13 12 11 8 8 7 6 11 11 12 15 11 7 5 10 20 18 16 16 10 8 5 -0 4 11 13 13 11 10 12 11 8 5 5 5 3 7 9 3 7 10 6 5 1 -1 1 4 6 9 10 8
5 6 8 10 10 10 11 12 12 11 9 9 12 17 19 14 11 14 17 15 12 11 9 7 4 3 11 13 10 11 9 5 9 12 10 9 8 11 14 13 9 9 10 7 8 10 12 15 10 5 6 6 10 15 16 16 12 8 4 3 7 8 6 8 9 5 5 8 5 -2 1 6 3 7 9 3 4 6 3 3 1 2 4 3 5 10 9 8
4 5 8 9 9 10 11 12 12 10 9 10 9 11 16 19 17 15 14 13 13 11 7 5 5 9 13 12 8 10 9 5 8 11 11 11 7 8 14 15 14 13 12 6 3 5 11 12 5 -0 1 2 8 11 12 17 16 7 7 8 9 11 5 2 8 6 2 7 8 3 8 12 5 7 9 4 4 3 0 2 3 2 3 6 10 10 8 9
4 4 7 9 9 10 11 11 12 10 8 9 10 9 10 15 19 19 15 10 10 11 9 7 10 14 14 14 10 7 10 8 7 10 11 11 7 6 10 11 14 15 13 10 4 4 10 12 7 3 2 1 8 13 10 12 12 8 13 13 8 9 4 -1 3 0 -4 1 5 0 2 7 4 3 6 7 5 0 -0 3 2 3 6 10 13 12 9 9
5 4 6 9 9 9 10 11 11 10 9 9 10 9 8 9 12 16 19 17 13 12 11 10 11 13 12 16 14 9 12 10 7 10 11 11 8 7 8 8 8 9 11 12 9 4 5 6 5 5 6 5 8 11 6 7 9 9 14 12 4 3 5 6 7 4 3 4 6 5 4 6 6 4 3 5 2 -3 0 4 3 4 7 8 9 11 8 8
6 4 5 8 8 9 10 10 11 9 8 9 9 10 8 9 9 9 14 17 18 17 15 13 10 9 9 10 12 14 12 6 5 10 11 9 8 8 9 9 6 6 8 8 7 6 4 5 6 3 4 7 13 13 12 17 12 4 7 6 0 -2 1 5 7 9 12 9 7 8 6 4 6 5 3 2 -0 -2 1 4 5 7 7 7 10 10 8 9
7 5 5 8 7 8 10 9 10 9 8 7 8 10 9 9 9 8 10 12 13 14 14 14 9 5 6 7 11 14 9 5 8 10 9 9 10 8 9 11 9 6 9 6 5 7 6 6 6 5 6 9 14 15 19 23 9 1 9 9 1 -2 -1 2 4 6 7 6 4 3 -1 0 5 5 3 5 1 -3 0 4 7 8 7 7 11 9 6 8
8 6 5 7 8 7 9 9 10 10 8 6 6 10 11 10 8 8 11 12 10 10 10 11 11 7 6 6 8 11 9 10 12 9 8 9 7 7 7 10 9 6 9 9 7 9 11 11 10 9 11 12 12 7 12 14 1 1 13 10 2 -1 1 3 3 4 3 1 1 3 7 9 10 7 4 6 1 -3 2 6 8 7 5 6 8 5 3 6
9 8 5 7 8 7 7 8 9 11 11 7 4 7 12 11 7 7 12 11 9 10 9 9 9 8 8 8 7 9 10 10 9 8 11 9 6 12 15 11 9 9 12 14 12 10 11 16 18 13 8 13 13 4 6 10 3 5 11 8 1 -1 4 3 -0 1 3 3 1 4 11 9 5 5 7 9 6 4 6 5 4 3 2 5 7 6 6 8
9 8 6 6 8 8 7 7 8 10 12 10 6 4 8 11 8 8 11 11 9 10 12 11 8 7 11 13 11 9 10 9 8 8 10 11 8 11 18 16 12 12 13 16 14 9 7 10 11 8 6 11 8 1 5 10 7 6 7 6 -2 -1 5 2 -0 -0 -0 8 7 2 6 5 3 6 8 11 8 4 3 0 2 4 6 10 9 8 8 9
9 9 8 6 8 8 6 7 8 8 10 12 11 5 4 8 9 9 8 8 9 9 12 13 10 8 8 9 9 8 10 8 8 8 6 10 11 6 10 15 15 14 13 14 12 8 7 5 2 3 8 9 1 1 7 8 10 10 10 9 3 8 12 5 9 7 2 14 13 4 5 6 7 8 4 5 4 2 4 7 11 11 10 10 7 7 7 7
9 9 8 7 8 8 7 7 7 7 9 11 12 9 6 5 6 9 8 5 6 8 10 11 10 9 7 7 6 5 6 5 5 7 4 9 13 6 5 10 11 11 11 12 12 10 10 9 7 5 7 5 0 6 11 10 15 16 15 16 11 14 14 11 20 16 9 19 14 5 7 4 5 7 1 0 3 6 11 15 15 9 5 5 5 7 8 9
8 10 9 8 8 8 7 6 6 7 7 9 10 9 8 7 5 7 8 6 6 6 7 9 9 9 9 9 8 8 8 5 4 6 5 8 11 5 4 7 6 6 7 9 11 14 15 15 14 7 7 11 11 14 15 12 13 11 12 18 16 17 16 13 18 10 4 13 10 4 7 2 2 7 5 4 7 8 9 11 7 3 4 5 5 8 9 9
6 9 9 9 9 9 6 4 7 8 6 7 10 9 9 8 6 6 6 6 7 5 3 8 9 8 10 9 7 9 9 6 7 9 7 7 9 6 3 6 7 8 8 6 8 11 9 9 11 9 11 17 14 12 13 11 9 7 9 13 10 12 13 10 13 7 2 9 8 6 9 5 3 7 7 8 10 7 5 6 3 3 6 4 2 5 6 7
5 7 10 10 9 10 7 4 7 8 6 6 7 9 10 8 7 8 6 4 8 8 4 6 6 6 11 11 9 8 9 10 9 9 9 8 9 8 6 8 13 12 8 9 10 8 6 6 7 7 9 10 4 3 7 9 8 9 12 12 6 5 8 8 11 8 5 11 10 7 12 10 6 7 8 9 10 7 5 5 3 4 4 2 3 6 7 8
5 6 8 11 10 11 9 5 5 7 7 7 6 6 9 7 7 12 9 5 9 12 10 9 5 5 10 11 13 14 11 15 14 7 9 14 11 6 7 12 15 11 9 15 13 6 8 9 3 4 8 6 4 4 5 8 12 14 14 12 8 9 9 9 13 13 10 11 8 7 11 9 7 8 7 7 7 6 5 5 4 4 6 8 9 10 11 9
5 5 7 10 11 11 10 5 3 6 7 8 8 6 7 8 8 11 9 7 8 9 11 13 7 3 7 8 10 12 10 14 17 11 8 12 11 5 6 12 15 12 10 13 13 10 12 8 3 10 12 6 5 6 4 5 9 14 14 11 10 10 11 12 16 17 13 8 5 6 7 4 5 6 6 7 7 5 4 4 2 3 7 11 8 8 12 11
4 5 5 8 11 11 12 7 3 5 5 7 10 8 7 8 8 9 9 9 11 9 10 16 14 6 5 7 6 6 8 8 9 9 9 10 10 7 9 10 9 10 9 8 10 13 13 11 13 15 8 7 10 7 5 3 3 10 12 11 12 11 10 11 12 11 7 5 6 7 6 5 5 5 6 8 7 6 6 4 3 4 7 7 4 6 11 10
3 5 5 6 10 11 12 9 5 5 6 6 8 9 8 7 6 8 10 9 11 13 10 11 13 11 7 8 7 6 9 9 5 6 10 12 10 8 9 9 5 7 8 8 10 9 9 16 21 14 4 10 12 4 4 5 5 9 8 8 14 16 12 9 10 9 5 5 7 9 10 9 7 7 7 6 4 4 4 4 4 6 7 7 5 7 10 10
2 4 5 5 8 11 12 10 7 5 6 6 6 7 9 8 4 6 10 9 7 10 13 9 6 8 7 6 6 6 8 10 10 9 10 13 13 9 9 9 9 10 9 8 8 8 9 14 16 13 12 15 9 3 5 8 10 10 8 8 12 16 14 11 14 16 11 10 10 9 9 7 6 7 6 5 4 4 5 7 8 8 10 10 6 5 10 12
2 2 4 4 6 10 12 10 8 6 5 6 5 5 8 8 6 5 7 9 8 7 12 14 8 7 10 10 8 7 6 7 9 9 10 12 12 10 9 8 9 11 11 8 6 6 12 14 11 13 19 16 11 11 11 10 11 10 10 9 7 12 15 12 13 15 13 11 6 4 5 5 5 5 5 6 8 10 10 10 9 9 10 6 2 3 7 9
2 2 4 5 4 8 12 11 9 7 5 6 6 5 7 7 6 7 5 6 9 8 7 12 12 8 8 11 10 7 6 8 8 6 8 11 11 9 9 9 7 8 10 9 5 5 11 14 11 13 16 10 8 12 11 10 10 8 8 7 6 11 13 13 13 12 14 10 4 5 6 4 4 5 8 12 11 11 10 8 7 8 6 2 3 7 8 8
3 3 3 5 4 5 10 11 10 8 5 7 7 5 6 6 5 7 7 6 7 8 5 7 12 12 7 5 8 8 7 11 12 8 7 8 9 9 9 10 9 7 9 11 8 7 10 14 10 10 13 9 7 10 11 10 8 8 9 9 9 10 8 12 15 16 21 15 6 8 6 1 5 7 7 9 7 6 9 12 13 9 4 4 7 10 9 9
4 4 4 4 4 4 6 9 12 11 7 6 7 6 5 6 6 6 7 7 7 7 7 6 9 15 12 7 11 15 10 9 10 10 9 5 5 9 9 7 8 8 8 10 10 9 11 13 10 8 11 11 10 10 12 13 12 13 15 11 10 10 8 10 10 11 19 14 5 8 6 3 8 9 7 9 12 13 14 16 17 10 5 6 10 14 13 9
4 4 4 4 4 3 4 6 11 13 10 6 6 7 7 5 5 6 6 7 7 7 9 9 8 11 13 10 11 15 14 10 8 8 10 6 3 9 10 6 5 9 10 9 11 12 10 11 12 10 10 12 13 13 14 16 13 13 14 10 8 7 5 8 8 7 12 10 5 9 7 5 10 10 9 11 13 12 11 12 13 10 6 5 9 15 16 12
5 5 6 5 5 4 3 3 8 12 12 7 4 6 8 6 5 6 6 6 7 7 8 9 9 8 10 9 7 10 13 14 12 9 8 7 5 7 11 8 5 10 13 9 10 12 9 9 13 12 11 12 13 13 14 13 10 9 10 6 3 5 5 7 11 10 12 11 8 8 7 6 7 8 7 9 8 8 9 9 8 9 8 8 9 11 13 14
6 6 6 5 5 4 3 3 4 9 14 11 5 5 6 7 7 5 5 6 6 6 6 7 8 8 9 7 7 10 13 15 16 12 7 6 7 6 8 8 5 9 13 9 10 12 8 8 12 13 14 14 10 10 12 11 9 12 15 12 8 10 10 9 9 10 11 11 8 5 6 6 5 5 5 6 7 9 10 9 9 9 9 10 10 9 9 11
6 6 6 5 5 4 4 4 2 6 13 11 7 7 5 5 8 7 5 6 5 5 6 6 7 8 10 7 5 9 13 13 16 16 10 7 7 5 5 8 6 8 10 9 10 11 7 9 13 11 11 13 10 10 10 11 12 11 12 15 15 13 9 6 7 7 8 8 7 7 10 10 8 7 7 6 8 11 12 12 12 10 9 11 11 9 7 8
7 7 7 5 5 5 4 5 3 3 8 11 10 9 5 2 5 7 7 6 5 4 5 6 5 6 9 9 5 6 9 10 13 16 15 11 7 5 4 7 10 10 8 7 9 11 9 9 12 10 10 11 10 10 9 12 16 11 3 8 13 11 6 4 5 7 7 7 8 10 12 12 11 11 12 12 11 11 11 11 11 8 7 9 8 6 7 8
9 7 7 7 6 6 5 6 5 2 4 9 11 10 6 3 3 5 6 6 6 6 6 6 6 5 7 9 8 6 7 8 8 12 15 13 13 13 5 3 8 10 7 6 7 10 11 10 10 11 11 10 9 11 12 12 14 11 7 8 11 11 10 8 7 8 7 7 8 9 8 8 9 10 11 12 11 9 12 16 16 9 5 6 8 9 9 9
9 7 7 9 7 6 7 6 4 3 3 5 8 10 8 5 3 3 5 5 6 7 6 5 6 5 5 7 9 8 8 9 7 9 12 12 16 19 8 -2 3 7 7 8 6 7 11 11 9 11 12 10 8 9 12 11 9 10 12 12 9 9 11 11 11 10 8 8 9 8 6 5 7 8 9 10 10 10 14 19 17 10 5 7 10 12 12 11
7 8 9 9 8 7 8 7 5 4 4 3 5 9 9 7 4 3 3 4 5 6 6 6 6 5 5 6 8 8 9 11 9 7 8 10 14 19 13 4 4 6 8 9 7 7 11 12 10 9 10 12 11 9 10 10 10 12 15 15 13 11 11 11 12 13 11 10 8 6 6 7 8 10 10 9 9 9 11 13 13 12 12 11 12 12 12 11
6 9 9 8 7 7 8 9 8 6 5 2 2 5 8 8 6 4 3 3 3 5 6 6 6 6 6 5 6 7 7 9 11 9 8 9 10 16 18 13 8 7 7 8 7 6 9 12 12 8 7 10 12 11 11 11 10 10 12 13 13 12 10 9 12 13 12 12 11 8 9 11 11 10 10 11 12 10 9 9 9 10 12 12 12 11 10 10
7 9 9 8 8 9 10 9 7 5 4 3 2 3 5 6 6 6 5 3 3 4 5 6 6 6 7 6 6 7 6 7 9 9 10 11 7 10 18 17 12 10 7 7 8 8 7 9 11 8 6 9 11 12 14 13 9 8 10 10 10 11 12 12 12 13 14 15 13 8 8 9 8 8 9 12 12 10 7 7 7 9 11 10 9 9 9 11
9 9 9 8 8 8 7 5 5 6 5 4 2 2 3 5 7 7 6 4 4 4 3 4 5 5 6 7 7 7 6 6 7 6 9 12 8 7 12 14 14 15 11 6 7 9 9 9 10 7 3 7 12 11 13 15 12 9 9 9 9 10 13 14 13 14 14 14 12 8 7 8 8 11 13 12 11 9 8 8 9 10 9 7 7 9 9 9
10 9 8 9 10 9 9 8 8 9 7 5 4 3 2 3 5 6 6 5 5 5 4 3 4 5 5 6 7 8 7 6 6 6 7 10 10 8 9 9 10 13 13 9 4 4 6 8 11 9 2 4 12 11 10 13 13 10 10 11 10 9 14 18 13 7 7 9 10 11 11 11 11 13 14 13 14 13 10 9 9 8 7 7 8 8 7 5
9 7 6 7 9 10 11 9 9 9 8 6 5 4 2 3 4 4 5 5 5 5 5 4 4 4 5 5 6 7 7 6 6 6 6 8 9 10 11 10 11 12 15 14 8 3 4 7 11 11 4 2 9 12 10 10 10 11 12 13 10 8 14 17 7 0 5 11 13 14 13 12 12 12 12 13 14 14 12 11 9 7 8 8 7 7 7 9
9 6 6 8 9 9 8 6 8 9 8 8 7 5 4 3 2 3 4 5 5 5 4 5 5 5 4 5 6 6 5 6 7 7 6 5 6 9 11 10 11 12 14 17 14 8 8 9 9 10 7 3 6 11 12 9 10 12 12 11 10 8 10 12 8 6 11 11 8 8 9 9 9 9 11 11 11 11 12 11 10 10 10 9 8 9 10 11
8 5 7 9 10 10 8 8 10 9 8 9 8 6 6 5 2 1 3 4 5 5 4 5 5 5 5 5 6 6 5 5 6 6 6 5 4 8 10 9 10 12 11 13 15 12 11 12 10 10 9 5 5 10 12 9 9 11 10 10 11 9 8 11 12 10 10 8 4 5 7 8 7 8 10 11 11 10 10 10 10 11 10 10 11 11 11 13
Height
5819 5817 5815 5813 5810 5807 5804 5802 5799 5796 5794 5792 5790 5788 5786 5785 5784 5783 5783 5782 5782 5782 5782 5783 5783 5783 5783 5783 5784 5784 5785 5786 5787 5788 5790 5791 5793 5794 5794 5795 5796 5798 5799 5800 5801 5802 5804 5805 5806 5807 5807 5809 5812 5814 5816 5817 5817 5816 5815 5814 5815 5816 5816 5816 5815 5815 5815 5816 5817 5818 5819 5820 5822 5823 5823 5823 5823 5823 5823 5822 5822 5822 5822 5822 5822 5823 5824 5824
5819 5817 5814 5812 5809 5807 5804 5801 5798 5795 5793 5791 5788 5786 5785 5783 5782 5781 5781 5781 5781 5781 5782 5782 5782 5782 5782 5783 5783 5784 5784 5785 5786 5788 5789 5791 5792 5793 5794 5795 5796 5798 5799 5800 5802 5803 5804 5805 5807 5808 5808 5809 5812 5814 5815 5815 5814 5814 5814 5814 5815 5816 5816 5816 5815 5815 5815 5816 5817 5817 5818 5820 5821 5822 5823 5823 5822 5822 5821 5820 5820 5820 5821 5821 5821 5822 5823 5824
5819 5817 5814 5812 5809 5806 5803 5800 5797 5794 5792 5789 5787 5785 5783 5782 5781 5780 5780 5780 5780 5781 5781 5781 5782 5782 5782 5782 5783 5783 5784 5785 5786 5787 5789 5790 5792 5793 5794 5795 5796 5797 5799 5801 5803 5804 5805 5806 5807 5809 5809 5810 5811 5813 5814 5814 5813 5813 5814 5815 5815 5816 5817 5815 5814 5814 5815 5815 5814 5814 5816 5817 5819 5820 5821 5821 5820 5820 5819 5819 5819 5820 5820 5820 5820 5821 5822 5823
5819 5817 5814 5812 5809 5806 5803 5799 5796 5793 5791 5788 5786 5784 5782 5781 5780 5779 5779 5779 5780 5780 5780 5781 5781 5781 5782 5782 5783 5783 5784 5785 5786 5787 5789 5790 5792 5793 5794 5795 5796 5797 5799 5801 5803 5804 5805 5806 5808 5809 5809 5810 5811 5812 5813 5814 5813 5813 5814 5815 5816 5816 5817 5816 5814 5813 5813 5813 5812 5812 5813 5815 5816 5817 5818 5818 5818 5818 5818 5819 5819 5819 5820 5820 5820 5820 5820 5821
5820 5817 5814 5812 5809 5806 5802 5799 5796 5793 5790 5787 5785 5783 5781 5780 5779 5779 5779 5779 5779 5780 5780 5781 5781 5781 5782 5782 5783 5783 5784 5785 5786 5788 5789 5790 5792 5794 5794 5796 5796 5797 5798 5800 5801 5803 5805 5806 5807 5808 5809 5811 5812 5812 5813 5813 5813 5813 5814 5815 5817 5818 5818 5817 5815 5813 5812 5812 5812 5812 5813 5813 5814 5816 5816 5817 5817 5816 5816 5818 5818 5818 5819 5819 5820 5820 5819 5820
5820 5817 5815 5812 5809 5805 5802 5799 5796 5792 5789 5787 5785 5782 5781 5779 5779 5778 5778 5779 5779 5780 5780 5781 5781 5781 5782 5782 5783 5784 5785 5786 5787 5788 5789 5791 5792 5794 5795 5796 5796 5796 5797 5798 5799 5800 5803 5805 5806 5807 5808 5809 5811 5811 5812 5812 5812 5813 5813 5815 5817 5819 5819 5818 5816 5814 5812 5811 5812 5812 5812 5813 5814 5814 5815 5815 5815 5814 5814 5815 5816 5817 5817 5818 5819 5820 5819 5819
5820 5818 5815 5812 5809 5805 5802 5799 5795 5792 5789 5787 5785 5782 5781 5779 5779 5778 5778 5779 5779 5780 5781 5781 5781 5781 5782 5783 5783 5784 5785 5787 5788 5789 5790 5792 5793 5794 5795 5796 5797 5797 5798 5798 5799 5800 5802 5803 5804 5806 5807 5808 5809 5810 5811 5811 5812 5812 5812 5814 5816 5818 5818 5817 5815 5814 5812 5811 5811 5810 5811 5812 5812 5812 5813 5814 5814 5813 5813 5813 5814 5815 5816 5817 5817 5818 5818 5818
5821 5818 5815 5812 5809 5805 5802 5799 5796 5793 5790 5787 5785 5783 5781 5780 5779 5779 5779 5780 5780 5781 5781 5781 5782 5782 5782 5783 5784 5784 5786 5787 5789 5790 5791 5793 5794 5795 5796 5797 5798 5799 5800 5800 5801 5802 5803 5804 5805 5806 5808 5807 5808 5810 5811 5811 5811 5811 5811 5813 5815 5817 5817 5816 5814 5812 5812 5811 5809 5809 5809 5810 5811 5811 5811 5813 5813 5812 5811 5812 5812 5814 5814 5815 5815 5816 5816 5816
5821 5819 5816 5812 5809 5806 5803 5800 5796 5793 5790 5788 5785 5784 5782 5781 5780 5780 5780 5780 5781 5781 5782 5782 5782 5782 5783 5783 5784 5785 5786 5788 5789 5791 5792 5793 5794 5795 5796 5797 5799 5800 5802 5802 5803 5803 5804 5805 5806 5807 5807 5807 5807 5809 5811 5810 5810 5810 5811 5812 5813 5815 5816 5815 5814 5811 5809 5809 5809 5809 5808 5808 5809 5810 5811 5812 5812 5810 5810 5810 5811 5812 5813 5814 5814 5814 5813 5813
5822 5819 5816 5813 5810 5806 5803 5800 5797 5794 5791 5789 5786 5785 5784 5783 5782 5781 5781 5782 5782 5782 5783 5783 5783 5783 5784 5784 5785 5785 5787 5788 5789 5791 5792 5792 5794 5795 5797 5798 5799 5801 5803 5804 5804 5804 5805 5806 5807 5807 5807 5807 5807 5808 5809 5809 5809 5809 5810 5811 5812 5813 5814 5814 5813 5810 5807 5808 5809 5808 5807 5808 5809 5810 5810 5810 5810 5809 5809 5810 5810 5811 5811 5812 5812 5812 5811 5811
5822 5820 5817 5814 5810 5807 5804 5801 5798 5796 5793 5790 5788 5786 5785 5784 5784 5783 5783 5783 5783 5784 5784 5784 5784 5785 5785 5785 5785 5786 5787 5789 5790 5791 5792 5793 5793 5795 5796 5798 5799 5801 5803 5804 5805 5805 5806 5807 5807 5808 5808 5808 5808 5807 5808 5808 5808 5808 5809 5810 5812 5813 5812 5812 5812 5810 5807 5807 5807 5807 5808 5808 5809 5809 5809 5808 5807 5808 5808 5808 5809 5810 5811 5811 5811 5810 5810 5809
5823 5820 5817 5814 5811 5808 5805 5802 5800 5797 5794 5792 5789 5788 5787 5786 5785 5785 5784 5784 5785 5785 5786 5786 5786 5786 5787 5787 5787 5787 5788 5789 5790 5791 5793 5793 5794 5795 5796 5797 5799 5800 5802 5803 5804 5806 5807 5807 5807 5808 5809 5809 5808 5807 5807 5806 5807 5808 5808 5810 5812 5811 5811 5811 5811 5809 5807 5806 5805 5807 5808 5808 5808 5808 5807 5806 5806 5807 5806 5806 5807 5808 5808 5810 5810 5809 5808 5808
5824 5821 5818 5815 5812 5810 5807 5804 5801 5798 5796 5793 5791 5789 5788 5787 5787 5786 5786 5786 5786 5786 5787 5787 5788 5788 5788 5789 5788 5789 5789 5790 5791 5792 5793 5794 5795 5796 5797 5798 5799 5800 5801 5802 5803 5805 5806 5806 5806 5807 5809 5809 5808 5807 5806 5806 5806 5807 5808 5810 5811 5810 5810 5810 5809 5809 5808 5805 5805 5806 5806 5806 5806 5806 5805 5805 5805 5805 5805 5805 5805 5805 5805 5807 5808 5807 5806 5806
5824 5822 5819 5816 5814 5811 5808 5805 5803 5800 5798 5795 5793 5791 5790 5789 5788 5788 5788 5788 5788 5788 5788 5788 5789 5789 5790 5790 5790 5790 5790 5791 5792 5793 5794 5795 5796 5797 5797 5798 5799 5799 5800 5801 5803 5804 5805 5806 5806 5807 5809 5809 5808 5807 5807 5806 5806 5807 5808 5809 5809 5808 5808 5808 5808 5808 5807 5806 5805 5805 5804 5804 5805 5805 5804 5803 5803 5804 5803 5803 5803 5803 5804 5805 5806 5806 5805 5804
5825 5823 5820 5818 5815 5812 5810 5807 5804 5802 5800 5797 5795 5794 5792 5791 5790 5790 5789 5789 5789 5789 5790 5789 5789 5790 5791 5791 5791 5791 5791 5792 5793 5794 5794 5795 5795 5797 5798 5798 5799 5799 5800 5801 5802 5802 5804 5805 5806 5806 5807 5807 5807 5807 5807 5806 5806 5807 5807 5808 5808 5807 5807 5807 5807 5807 5807 5806 5805 5805 5804 5803 5803 5803 5803 5802 5801 5802 5802 5802 5802 5802 5803 5803 5803 5804 5803 5802
5826 5824 5821 5819 5816 5814 5811 5809 5806 5804 5801 5799 5797 5796 5794 5793 5792 5792 5791 5791 5791 5791 5791 5791 5791 5791 5792 5792 5792 5791 5792 5792 5793 5794 5795 5795 5796 5797 5798 5799 5799 5800 5800 5800 5800 5801 5803 5804 5804 5804 5804 5805 5805 5805 5805 5805 5805 5806 5806 5806 5806 5807 5807 5807 5806 5807 5807 5805 5804 5804 5803 5802 5801 5800 5801 5802 5801 5801 5801 5801 5801 5801 5801 5801 5801 5801 5801 5800
5827 5825 5823 5820 5818 5815 5813 5810 5808 5806 5803 5801 5799 5798 5797 5796 5795 5794 5793 5793 5793 5792 5792 5792 5792 5792 5793 5793 5793 5793 5793 5793 5794 5795 5795 5795 5796 5796 5797 5798 5799 5800 5800 5800 5800 5801 5802 5802 5803 5803 5803 5804 5803 5804 5804 5804 5804 5805 5805 5805 5805 5806 5807 5807 5806 5806 5806 5805 5804 5803 5803 5802 5800 5798 5797 5798 5799 5799 5800 5800 5800 5800 5800 5799 5799 5799 5798 5798
5828 5826 5824 5822 5819 5817 5814 5812 5810 5808 5805 5803 5801 5800 5799 5798 5797 5796 5795 5794 5794 5794 5794 5793 5794 5794 5794 5794 5794 5794 5794 5794 5794 5795 5795 5795 5796 5796 5796 5797 5797 5798 5800 5800 5800 5800 5801 5801 5802 5802 5803 5803 5802 5802 5802 5803 5803 5804 5805 5804 5805 5805 5806 5806 5806 5805 5805 5804 5803 5802 5802 5802 5801 5799 5796 5796 5797 5798 5798 5799 5799 5799 5799 5798 5797 5797 5797 5796
5828 5827 5825 5823 5821 5818 5816 5814 5812 5810 5808 5806 5804 5802 5800 5800 5799 5798 5797 5796 5796 5796 5795 5795 5795 5795 5795 5795 5795 5795 5795 5795 5795 5795 5795 5796 5796 5797 5797 5797 5797 5798 5798 5799 5799 5800 5800 5801 5801 5801 5802 5802 5802 5802 5802 5803 5803 5803 5804 5804 5804 5804 5804 5804 5804 5804 5804 5803 5802 5802 5802 5802 5801 5800 5798 5796 5796 5797 5797 5797 5796 5796 5796 5796 5796 5796 5796 5795
5829 5827 5826 5824 5822 5820 5818 5815 5813 5811 5810 5808 5806 5804 5802 5801 5801 5800 5799 5799 5799 5798 5797 5797 5797 5796 5796 5796 5796 5796 5796 5796 5796 5796 5796 5796 5797 5797 5798 5798 5798 5798 5798 5798 5799 5799 5800 5800 5801 5801 5801 5801 5802 5801 5802 5802 5802 5802 5803 5802 5802 5802 5802 5802 5802 5803 5803 5802 5802 5802 5801 5801 5801 5800 5798 5797 5796 5796 5796 5796 5794 5794 5794 5794 5795 5795 5795 5793
5830 5828 5827 5825 5823 5821 5819 5817 5815 5813 5811 5810 5808 5806 5804 5804 5803 5802 5801 5801 5801 5800 5799 5799 5798 5797 5798 5798 5797 5797 5797 5797 5798 5797 5797 5797 5797 5798 5798 5798 5798 5798 5798 5798 5799 5799 5800 5800 5800 5800 5801 5801 5801 5800 5800 5801 5801 5801 5801 5801 5801 5800 5800 5801 5801 5801 5801 5802 5802 5801 5800 5800 5800 5799 5798 5798 5797 5796 5796 5795 5794 5793 5793 5793 5793 5793 5792 5791
5831 5829 5828 5826 5825 5823 5821 5819 5817 5815 5813 5812 5810 5808 5806 5806 5805 5804 5803 5802 5802 5801 5801 5800 5799 5799 5799 5799 5799 5799 5799 5798 5798 5798 5798 5798 5798 5798 5799 5799 5798 5798 5798 5798 5799 5799 5799 5799 5799 5800 5801 5800 5800 5799 5800 5799 5799 5799 5799 5800 5799 5799 5799 5799 5799 5799 5799 5800 5801 5801 5800 5799 5798 5798 5798 5798 5797 5796 5795 5794 5794 5793 5792 5791 5791 5790 5790 5789
5831 5830 5828 5827 5826 5824 5822 5820 5818 5817 5815 5813 5812 5811 5808 5808 5807 5806 5805 5804 5803 5803 5802 5801 5801 5800 5800 5800 5800 5800 5800 5799 5799 5798 5798 5798 5798 5798 5799 5799 5799 5798 5799 5799 5798 5798 5798 5798 5799 5799 5799 5799 5798 5798 5799 5799 5798 5798 5798 5799 5798 5798 5798 5798 5798 5798 5797 5798 5800 5799 5799 5798 5797 5797 5797 5797 5796 5795 5793 5793 5793 5792 5791 5790 5789 5788 5787 5786
5832 5830 5829 5828 5827 5825 5823 5822 5820 5818 5817 5815 5814 5813 5811 5810 5808 5807 5806 5805 5805 5804 5803 5802 5802 5802 5802 5802 5801 5801 5801 5800 5800 5799 5799 5799 5799 5799 5799 5799 5799 5799 5799 5799 5798 5798 5797 5797 5798 5798 5797 5798 5797 5797 5798 5798 5798 5798 5798 5798 5797 5798 5798 5797 5797 5798 5797 5797 5797 5797 5796 5796 5796 5796 5796 5795 5795 5794 5792 5791 5791 5790 5789 5788 5786 5786 5785 5784
5833 5831 5830 5828 5827 5826 5825 5824 5822 5820 5818 5817 5816 5815 5813 5811 5810 5809 5808 5807 5806 5805 5804 5803 5803 5803 5803 5803 5802 5802 5802 5801 5801 5800 5800 5800 5800 5799 5799 5799 5799 5799 5799 5798 5798 5797 5797 5797 5797 5797 5797 5797 5796 5797 5797 5796 5796 5797 5797 5797 5796 5796 5796 5796 5796 5797 5798 5797 5795 5795 5794 5794 5793 5793 5793 5792 5792 5792 5792 5791 5790 5788 5787 5786 5785 5784 5783 5782
5833 5832 5830 5829 5828 5827 5826 5825 5823 5821 5820 5818 5818 5816 5814 5813 5812 5810 5810 5808 5807 5806 5806 5805 5804 5804 5804 5803 5803 5803 5802 5802 5801 5800 5800 5800 5800 5799 5799 5799 5799 5799 5799 5798 5798 5797 5797 5798 5797 5797 5797 5796 5796 5796 5796 5795 5795 5795 5795 5795 5795 5795 5795 5794 5794 5795 5795 5795 5793 5793 5793 5791 5790 5790 5791 5790 5790 5790 5791 5790 5788 5787 5785 5784 5783 5782 5781 5780
5834 5832 5831 5830 5829 5828 5827 5825 5824 5823 5821 5819 5819 5817 5815 5813 5812 5811 5811 5809 5808 5808 5807 5806 5806 5806 5805 5804 5804 5803 5803 5802 5801 5801 5801 5800 5800 5800 5799 5799 5799 5799 5799 5798 5797 5797 5797 5797 5797 5797 5797 5796 5796 5796 5795 5794 5794 5793 5794 5793 5793 5793 5792 5792 5792 5792 5792 5792 5791 5791 5791 5789 5788 5788 5789 5789 5789 5789 5789 5788 5787 5786 5785 5784 5783 5781 5780 5779
5834 5833 5832 5830 5829 5828 5827 5826 5825 5824 5822 5820 5820 5818 5816 5814 5813 5812 5811 5810 5810 5809 5808 5807 5807 5806 5806 5805 5805 5804 5803 5802 5802 5801 5801 5800 5800 5800 5800 5799 5799 5798 5798 5798 5797 5796 5797 5796 5796 5796 5796 5795 5795 5794 5794 5793 5792 5792 5792 5792 5791 5791 5791 5790 5791 5791 5791 5791 5790 5790 5789 5788 5787 5787 5787 5787 5787 5788 5788 5787 5786 5785 5784 5783 5781 5780 5779 5778
5835 5834 5832 5831 5830 5829 5828 5827 5826 5824 5823 5821 5820 5819 5817 5815 5814 5814 5812 5811 5810 5810 5809 5808 5808 5807 5807 5806 5806 5805 5804 5803 5802 5802 5801 5801 5800 5800 5800 5799 5798 5798 5797 5797 5797 5796 5796 5795 5795 5795 5795 5795 5794 5793 5793 5793 5792 5791 5791 5790 5790 5790 5789 5789 5789 5789 5789 5789 5789 5788 5788 5787 5786 5786 5785 5786 5786 5786 5786 5785 5784 5784 5783 5781 5780 5779 5777 5776
5835 5834 5833 5831 5830 5829 5828 5827 5826 5825 5824 5822 5821 5820 5818 5816 5816 5815 5813 5811 5811 5810 5809 5809 5809 5808 5807 5806 5805 5805 5804 5803 5802 5802 5801 5801 5800 5800 5800 5799 5798 5798 5797 5797 5797 5796 5796 5795 5794 5794 5793 5793 5793 5793 5792 5792 5791 5790 5789 5789 5789 5788 5788 5787 5788 5788 5787 5787 5787 5786 5786 5785 5785 5785 5785 5785 5785 5785 5784 5783 5783 5782 5781 5780 5778 5777 5776 5775
5836 5834 5833 5832 5831 5830 5829 5828 5827 5825 5824 5823 5822 5821 5819 5818 5818 5816 5813 5812 5812 5811 5811 5810 5810 5809 5807 5805 5805 5804 5804 5803 5802 5802 5801 5801 5801 5800 5799 5799 5798 5798 5797 5796 5796 5795 5795 5794 5793 5793 5792 5792 5792 5791 5791 5791 5790 5789 5789 5788 5788 5788 5787 5786 5786 5786 5785 5785 5785 5785 5784 5784 5783 5783 5784 5784 5784 5783 5782 5782 5781 5781 5779 5778 5777 5776 5775 5773
5836 5835 5834 5832 5831 5830 5829 5828 5827 5826 5825 5824 5823 5822 5820 5819 5818 5816 5813 5813 5812 5812 5811 5810 5810 5809 5808 5806 5805 5804 5804 5804 5803 5802 5801 5801 5800 5799 5799 5798 5797 5797 5796 5796 5795 5794 5794 5793 5793 5792 5791 5791 5791 5790 5789 5789 5788 5788 5788 5788 5787 5787 5786 5785 5785 5784 5784 5783 5784 5783 5783 5783 5782 5782 5782 5782 5782 5781 5781 5780 5779 5778 5777 5776 5775 5774 5773 5771
5835 5834 5833 5832 5831 5830 5829 5828 5827 5826 5826 5824 5823 5822 5821 5820 5819 5816 5814 5814 5813 5812 5812 5811 5810 5809 5808 5807 5806 5805 5805 5804 5803 5803 5801 5801 5800 5799 5798 5798 5797 5797 5796 5795 5795 5794 5793 5792 5792 5791 5790 5790 5790 5789 5788 5788 5787 5786 5786 5786 5786 5785 5785 5784 5784 5783 5782 5782 5782 5781 5781 5781 5781 5780 5780 5780 5779 5779 5779 5778 5777 5775 5774 5774 5773 5772 5771 5770
5835 5834 5833 5832 5831 5830 5829 5828 5828 5827 5826 5825 5824 5823 5821 5821 5819 5817 5815 5814 5813 5813 5812 5812 5811 5810 5809 5808 5807 5806 5805 5804 5804 5803 5801 5800 5800 5799 5798 5797 5796 5796 5795 5794 5793 5793 5792 5791 5790 5790 5789 5789 5789 5788 5787 5787 5786 5785 5784 5784 5784 5784 5783 5783 5782 5782 5781 5781 5780 5779 5778 5778 5778 5778 5777 5777 5778 5777 5776 5775 5774 5773 5772 5772 5771 5770 5769 5768
5834 5834 5833 5832 5831 5830 5829 5828 5828 5827 5826 5825 5824 5823 5822 5821 5819 5817 5816 5815 5814 5813 5812 5812 5811 5810 5810 5809 5808 5806 5805 5805 5804 5803 5801 5801 5800 5798 5797 5796 5796 5795 5794 5793 5792 5791 5791 5790 5789 5789 5788 5788 5787 5787 5786 5785 5785 5784 5783 5783 5783 5783 5782 5782 5781 5781 5780 5779 5778 5777 5776 5775 5775 5775 5775 5775 5775 5774 5773 5772 5772 5771 5771 5770 5770 5769 5768 5767
5833 5833 5833 5832 5831 5830 5830 5828 5827 5827 5826 5826 5825 5823 5823 5822 5819 5818 5817 5816 5815 5814 5813 5812 5812 5811 5810 5809 5808 5807 5806 5805 5804 5803 5802 5801 5800 5798 5797 5796 5795 5794 5794 5793 5792 5790 5789 5789 5788 5788 5788 5787 5786 5785 5784 5784 5783 5782 5782 5782 5781 5781 5780 5780 5780 5779 5778 5777 5776 5775 5774 5773 5773 5772 5772 5772 5772 5771 5771 5771 5770 5769 5769 5769 5768 5767 5766 5765
5832 5832 5832 5832 5831 5830 5830 5828 5827 5827 5826 5825 5825 5824 5823 5822 5820 5819 5818 5816 5815 5814 5813 5813 5812 5812 5811 5810 5808 5807 5806 5805 5804 5803 5802 5801 5799 5798 5797 5795 5795 5794 5793 5792 5792 5790 5788 5788 5787 5787 5787 5786 5785 5784 5783 5783 5782 5782 5782 5781 5780 5780 5779 5778 5778 5778 5777 5776 5774 5773 5773 5772 5772 5771 5770 5770 5770 5769 5769 5769 5768 5767 5766 5766 5766 5765 5764 5763
5831 5831 5831 5831 5831 5830 5829 5828 5827 5827 5826 5825 5825 5824 5823 5821 5820 5819 5818 5817 5816 5815 5814 5813 5812 5812 5811 5810 5809 5807 5806 5805 5804 5803 5802 5801 5799 5798 5797 5795 5794 5793 5793 5791 5791 5789 5788 5787 5786 5786 5786 5785 5784 5783 5782 5781 5780 5780 5780 5780 5779 5779 5778 5777 5777 5776 5776 5775 5773 5771 5771 5770 5770 5769 5768 5768 5768 5768 5767 5767 5766 5765 5764 5764 5764 5763 5762 5761
5830 5830 5830 5830 5830 5829 5828 5828 5827 5827 5826 5825 5825 5824 5823 5821 5820 5819 5818 5817 5816 5815 5814 5813 5812 5812 5811 5810 5809 5807 5806 5805 5804 5803 5802 5801 5799 5798 5797 5796 5794 5793 5793 5791 5790 5789 5787 5786 5785 5785 5785 5784 5783 5782 5781 5780 5779 5779 5779 5779 5778 5778 5777 5776 5776 5775 5775 5774 5772 5770 5769 5768 5767 5767 5766 5765 5765 5765 5764 5764 5764 5763 5763 5762 5763 5762 5760 5759
5828 5828 5828 5828 5828 5828 5828 5828 5827 5827 5826 5825 5825 5824 5823 5821 5820 5819 5819 5818 5817 5815 5814 5813 5812 5812 5811 5810 5809 5808 5806 5805 5804 5803 5802 5801 5800 5798 5797 5796 5794 5793 5792 5791 5790 5789 5787 5786 5785 5784 5783 5783 5782 5781 5781 5780 5779 5778 5778 5777 5777 5776 5775 5774 5774 5774 5773 5772 5771 5769 5767 5766 5765 5765 5764 5763 5762 5761 5761 5761 5761 5761 5760 5760 5760 5760 5758 5757
5826 5826 5827 5827 5827 5827 5827 5827 5826 5826 5826 5825 5824 5824 5823 5821 5820 5820 5819 5818 5816 5815 5814 5813 5812 5812 5811 5810 5809 5807 5806 5805 5804 5803 5802 5801 5800 5798 5797 5796 5794 5793 5792 5791 5789 5788 5787 5786 5785 5784 5782 5781 5781 5780 5780 5779 5778 5778 5777 5777 5775 5775 5774 5773 5772 5772 5771 5770 5770 5768 5767 5765 5764 5763 5762 5761 5760 5759 5759 5759 5759 5759 5758 5757 5757 5757 5756 5755
5823 5824 5825 5825 5825 5826 5826 5826 5826 5825 5825 5824 5824 5823 5822 5821 5821 5820 5819 5818 5817 5816 5814 5813 5812 5812 5811 5810 5809 5807 5806 5805 5804 5803 5802 5801 5799 5798 5797 5795 5794 5793 5792 5790 5789 5788 5787 5785 5784 5783 5782 5781 5780 5779 5779 5778 5777 5776 5776 5775 5774 5773 5773 5772 5771 5770 5769 5768 5768 5767 5766 5765 5763 5761 5761 5760 5759 5758 5757 5757 5758 5757 5756 5754 5754 5754 5753 5752
5821 5822 5823 5823 5823 5824 5824 5824 5824 5824 5824 5823 5823 5822 5822 5821 5820 5819 5819 5818 5817 5816 5814 5813 5812 5811 5810 5810 5809 5807 5806 5805 5803 5802 5802 5801 5800 5798 5797 5795 5794 5793 5792 5790 5789 5788 5786 5785 5784 5782 5781 5780 5779 5778 5778 5777 5776 5776 5775 5774 5773 5772 5771 5770 5769 5769 5768 5767 5765 5764 5763 5763 5762 5760 5759 5758 5757 5756 5756 5756 5756 5755 5754 5753 5752 5751 5750 5749
5819 5819 5820 5821 5822 5822 5823 5823 5823 5823 5822 5822 5822 5821 5821 5820 5820 5819 5818 5817 5817 5816 5815 5813 5812 5811 5810 5809 5808 5807 5806 5805 5803 5802 5801 5800 5799 5799 5797 5796 5794 5793 5792 5790 5788 5787 5786 5784 5783 5782 5780 5779 5778 5777 5777 5776 5775 5774 5774 5773 5772 5771 5770 5769 5768 5767 5766 5765 5764 5762 5761 5761 5760 5758 5757 5756 5754 5754 5754 5755 5754 5753 5751 5751 5750 5749 5748 5747
5816 5817 5819 5820 5820 5820 5821 5821 5821 5821 5821 5821 5821 5820 5820 5819 5819 5818 5818 5817 5816 5815 5814 5813 5812 5811 5810 5809 5809 5808 5806 5805 5803 5802 5800 5799 5799 5798 5797 5796 5795 5793 5792 5790 5788 5786 5785 5784 5783 5781 5780 5778 5777 5777 5776 5775 5774 5773 5772 5772 5771 5770 5768 5767 5766 5765 5764 5763 5762 5761 5760 5759 5758 5757 5755 5754 5753 5752 5751 5751 5751 5750 5749 5748 5747 5747 5746 5745
5815 5815 5816 5817 5817 5818 5819 5819 5820 5819 5819 5819 5819 5819 5818 5818 5818 5817 5817 5816 5816 5815 5814 5813 5812 5811 5810 5809 5808 5808 5807 5805 5804 5802 5800 5799 5798 5797 5797 5796 5795 5794 5792 5790 5788 5786 5785 5784 5782 5780 5779 5778 5777 5776 5775 5774 5773 5772 5771 5770 5769 5769 5767 5766 5764 5764 5763 5762 5760 5759 5758 5758 5757 5755 5753 5752 5751 5750 5748 5748 5747 5747 5747 5746 5745 5745 5744 5743
5813 5813 5814 5814 5815 5816 5817 5817 5817 5817 5817 5818 5818 5817 5817 5817 5816 5816 5816 5815 5815 5814 5813 5813 5811 5810 5810 5808 5807 5807 5806 5805 5804 5802 5800 5799 5797 5796 5796 5795 5794 5793 5792 5790 5788 5786 5784 5783 5782 5780 5777 5776 5776 5775 5774 5773 5772 5771 5770 5768 5767 5767 5766 5764 5763 5762 5761 5760 5759 5757 5756 5756 5755 5753 5751 5750 5750 5748 5747 5745 5745 5745 5745 5745 5744 5744 5743 5742
5811 5811 5811 5812 5813 5814 5814 5815 5815 5815 5816 5816 5816 5816 5816 5815 5815 5815 5814 5814 5813 5813 5813 5812 5811 5810 5809 5808 5807 5806 5805 5804 5803 5801 5800 5799 5797 5796 5795 5794 5793 5792 5791 5789 5788 5786 5784 5783 5781 5779 5777 5775 5775 5774 5773 5772 5771 5770 5769 5767 5766 5765 5763 5762 5761 5760 5760 5759 5758 5756 5755 5754 5753 5752 5750 5749 5748 5747 5745 5744 5743 5743 5743 5742 5742 5742 5741 5740
5808 5809 5809 5809 5810 5811 5812 5813 5813 5813 5814 5814 5814 5814 5814 5814 5814 5813 5813 5812 5812 5812 5812 5811 5810 5809 5808 5808 5807 5806 5805 5803 5802 5801 5799 5798 5797 5795 5794 5792 5791 5790 5790 5788 5786 5785 5784 5782 5781 5779 5776 5774 5774 5773 5772 5771 5770 5769 5767 5766 5765 5764 5762 5760 5759 5759 5758 5757 5756 5755 5754 5752 5751 5750 5749 5747 5747 5746 5744 5743 5743 5742 5741 5741 5740 5739 5738 5737
5805 5805 5806 5807 5807 5808 5809 5809 5810 5811 5811 5811 5812 5812 5812 5812 5812 5812 5811 5811 5811 5810 5810 5810 5809 5809 5808 5807 5806 5805 5804 5803 5801 5800 5799 5797 5796 5795 5793 5792 5791 5789 5789 5788 5786 5784 5783 5782 5780 5778 5776 5774 5773 5772 5771 5770 5768 5767 5766 5765 5764 5762 5761 5759 5758 5757 5756 5755 5754 5753 5752 5751 5750 5749 5747 5746 5745 5744 5743 5743 5742 5742 5741 5740 5739 5738 5737 5736
5801 5802 5803 5804 5805 5805 5806 5806 5807 5808 5808 5809 5809 5810 5810 5810 5810 5810 5810 5810 5809 5809 5809 5808 5808 5808 5807 5806 5805 5804 5803 5802 5801 5799 5798 5797 5795 5794 5792 5791 5790 5788 5788 5787 5786 5784 5783 5781 5780 5778 5776 5773 5772 5771 5770 5769 5767 5765 5764 5763 5762 5761 5760 5758 5757 5756 5755 5754 5753 5751 5750 5749 5748 5747 5746 5745 5743 5743 5742 5741 5741 5740 5740 5739 5738 5737 5736 5734
5798 5799 5800 5801 5802 5803 5803 5804 5805 5805 5806 5806 5807 5807 5807 5808 5808 5808 5808 5808 5808 5807 5807 5807 5807 5806 5806 5805 5804 5803 5802 5801 5800 5799 5797 5796 5795 5793 5791 5790 5788 5787 5786 5785 5784 5783 5782 5781 5779 5777 5775 5773 5771 5770 5769 5768 5766 5764 5763 5762 5761 5760 5758 5757 5756 5755 5753 5752 5751 5750 5748 5747 5746 5745 5744 5743 5742 5741 5740 5740 5739 5738 5738 5738 5737 5736 5734 5733